Airport METAR Information

LTBA 171650Z 08010KT 050V140 9999 SCT040 BKN100 12/06 Q1026 NOSIG

VATSIM Livefeed

Card image cap

ATC Bookings

No position booked

Card image cap

Active ATC

No controllers online

Blog

Read our latest news and get to know us better.